OE3MHU-13 Weather Reports


Display with metric or nautical units.
time (UTC)temp
F
wind
direction
speed
MPH
gust
MPH
rain 1hr
in
rain 24hr
in
rain mn
in
humidity
%
barometer
mb
20260507161405 60 206 1.0 4.0 0.09 0.09 0.09 75 1014.0
20260507160858 60 63 1.0 7.0 0.09 0.09 0.09 74 1014.0
20260507160353 61 134 5.0 10.0 0.09 0.10 0.09 72 1013.9
20260507155847 62 91 6.0 10.0 0.09 0.10 0.09 65 1013.8
20260507155344 61 54 4.0 18.0 0.09 0.09 0.09 66 1013.8
20260507154836 63 77 4.0 18.0 0.08 0.09 0.08 58 1014.3
20260507154329 65 239 4.0 10.0 0.01 0.02 0.01 62 1014.2
20260507153824 67 222 3.0 8.0 0.00 0.01 0.00 56 1014.0
20260507153316 68 178 2.0 6.0 0.00 0.01 0.00 52 1013.7
20260507152812 68 103 2.0 6.0 0.00 0.01 0.00 51 1013.6
20260507152306 69 128 2.0 5.0 0.00 0.01 0.00 50 1013.5
20260507152247 69 122 2.0 5.0 0.00 0.01 0.00 49 1013.4
20260507151253 69 86 1.0 4.0 0.00 0.01 0.00 49 1013.4
20260507150747 69 72 1.0 4.0 0.00 0.01 0.00 48 1013.4
20260507150241 69 77 1.0 6.0 0.00 0.01 0.00 47 1013.4
20260507145735 69 261 2.0 6.0 0.00 0.01 0.00 47 1013.3
20260507145228 69 73 2.0 6.0 0.00 0.01 0.00 47 1013.3
20260507144723 70 162 3.0 7.0 0.00 0.01 0.00 47 1013.3
20260507144217 70 84 3.0 7.0 0.00 0.01 0.00 46 1013.4
20260507143711 71 91 4.0 8.0 0.00 0.01 0.00 46 1013.3
20260507142659 71 82 5.0 10.0 0.00 0.01 0.00 45 1013.3
20260507142153 71 87 6.0 12.0 0.00 0.01 0.00 45 1013.4
20260507141646 71 90 5.0 12.0 0.00 0.01 0.00 45 1013.3
20260507141141 71 90 3.0 10.0 0.00 0.01 0.00 45 1013.3
20260507140635 72 88 3.0 9.0 0.00 0.01 0.00 44 1013.4
20260507140129 72 236 2.0 5.0 0.00 0.01 0.00 46 1013.3
20260507135627 71 88 2.0 7.0 0.00 0.01 0.00 45 1013.3
20260507135130 71 65 2.0 7.0 0.00 0.01 0.00 44 1013.4
20260507134627 72 103 2.0 5.0 0.00 0.01 0.00 43 1013.4
20260507134126 72 282 1.0 5.0 0.00 0.01 0.00 45 1013.4
20260507133628 72 133 1.0 4.0 0.00 0.01 0.00 44 1013.5
20260507133127 73 233 1.0 4.0 0.00 0.01 0.00 43 1013.6
20260507132625 73 234 1.0 4.0 0.00 0.01 0.00 44 1013.6
20260507132125 72 108 1.0 5.0 0.00 0.01 0.00 45 1013.6
20260507131625 71 108 1.0 5.0 0.00 0.01 0.00 45 1013.6
20260507131125 70 99 1.0 5.0 0.00 0.01 0.00 47 1013.6
20260507130625 70 228 2.0 5.0 0.00 0.01 0.00 47 1013.8
20260507130123 69 193 2.0 6.0 0.00 0.01 0.00 47 1013.8
20260507125623 70 215 3.0 7.0 0.00 0.01 0.00 46 1013.8
20260507125121 70 226 2.0 7.0 0.00 0.01 0.00 45 1013.8
20260507124622 71 205 2.0 7.0 0.00 0.01 0.00 45 1013.8
20260507124121 71 52 2.0 6.0 0.00 0.01 0.00 45 1013.8
20260507123622 71 146 2.0 5.0 0.00 0.01 0.00 44 1013.9
20260507123121 72 210 1.0 6.0 0.00 0.01 0.00 44 1013.9
20260507122621 71 248 2.0 6.0 0.00 0.01 0.00 46 1013.9
20260507122121 70 212 2.0 6.0 0.00 0.01 0.00 46 1013.9
20260507121622 70 205 2.0 8.0 0.00 0.01 0.00 47 1013.9
20260507121121 69 209 2.0 8.0 0.00 0.01 0.00 49 1014.1
20260507120621 68 158 2.0 8.0 0.00 0.01 0.00 49 1014.2
20260507120121 68 250 3.0 9.0 0.00 0.01 0.00 48 1014.2
20260507115621 68 146 4.0 9.0 0.00 0.01 0.00 48 1014.3
20260507115121 69 226 3.0 8.0 0.00 0.01 0.00 46 1014.2
20260507114619 70 212 3.0 11.0 0.00 0.01 0.00 46 1014.2
20260507114119 69 198 3.0 11.0 0.00 0.01 0.00 48 1014.2
20260507113619 69 256 2.0 8.0 0.00 0.01 0.00 48 1014.3
20260507113120 69 240 2.0 7.0 0.00 0.01 0.00 49 1014.3
20260507112617 68 262 3.0 11.0 0.00 0.01 0.00 50 1014.6
20260507112117 68 224 3.0 12.0 0.00 0.01 0.00 50 1014.4
20260507111615 68 162 3.0 12.0 0.00 0.01 0.00 52 1014.6
20260507111114 67 153 3.0 9.0 0.00 0.01 0.00 53 1014.6
20260507110615 66 219 3.0 9.0 0.00 0.01 0.00 53 1014.6
20260507110115 66 234 4.0 9.0 0.00 0.01 0.00 52 1014.8
20260507105614 66 203 4.0 10.0 0.00 0.01 0.00 53 1014.8
20260507105113 66 236 3.0 10.0 0.00 0.01 0.00 53 1014.9
20260507104613 66 152 4.0 10.0 0.00 0.01 0.00 54 1014.9
20260507104113 66 205 4.0 10.0 0.00 0.01 0.00 54 1015.0
20260507103613 66 230 2.0 8.0 0.00 0.01 0.00 54 1015.0
20260507103113 66 223 2.0 8.0 0.00 0.01 0.00 53 1015.0
20260507102613 66 198 1.0 6.0 0.00 0.01 0.00 54 1015.0
20260507102111 65 211 2.0 7.0 0.00 0.01 0.00 54 1015.0
20260507101611 65 224 2.0 7.0 0.00 0.01 0.00 55 1015.1
20260507101109 65 266 2.0 7.0 0.00 0.01 0.00 54 1015.1
20260507100607 65 198 3.0 7.0 0.00 0.01 0.00 54 1015.0
20260507100106 65 179 3.0 7.0 0.00 0.01 0.00 54 1015.0
20260507095607 65 214 2.0 6.0 0.00 0.01 0.00 54 1014.9
20260507095107 66 228 1.0 6.0 0.00 0.01 0.00 55 1014.9
20260507094607 65 123 2.0 5.0 0.00 0.01 0.00 56 1014.8
20260507094109 65 199 1.0 6.0 0.00 0.01 0.00 55 1014.8
20260507093608 64 149 1.0 6.0 0.00 0.01 0.00 57 1014.9
20260507093107 64 275 2.0 8.0 0.00 0.01 0.00 57 1015.0
20260507092607 63 191 3.0 8.0 0.00 0.01 0.00 57 1015.0
20260507092107 63 241 3.0 11.0 0.00 0.01 0.00 57 1014.8
20260507091613 63 198 3.0 11.0 0.00 0.01 0.00 57 1014.8
20260507091106 63 266 4.0 11.0 0.00 0.01 0.00 57 1014.7
20260507090608 64 76 4.0 12.0 0.00 0.01 0.00 56 1014.6
20260507090106 64 221 4.0 14.0 0.00 0.01 0.00 57 1014.6
20260507085606 64 219 4.0 14.0 0.00 0.01 0.00 56 1014.4
20260507085107 64 229 4.0 11.0 0.00 0.01 0.00 57 1014.4
20260507084607 64 251 5.0 11.0 0.00 0.01 0.00 57 1014.3
20260507084107 64 251 5.0 14.0 0.00 0.01 0.00 57 1014.2
20260507083606 64 208 4.0 14.0 0.00 0.01 0.00 56 1014.1
20260507083107 64 227 3.0 9.0 0.00 0.01 0.00 58 1014.1
20260507082607 64 135 3.0 9.0 0.00 0.01 0.00 56 1014.0
20260507082103 63 209 2.0 12.0 0.00 0.01 0.00 59 1014.1
20260507081603 62 213 3.0 12.0 0.00 0.01 0.00 60 1014.0
20260507081103 62 124 3.0 15.0 0.00 0.01 0.00 60 1014.1
20260507080603 62 230 3.0 15.0 0.00 0.01 0.00 61 1014.1
20260507080103 61 266 3.0 9.0 0.00 0.01 0.00 61 1014.1
20260507075603 61 252 4.0 10.0 0.00 0.01 0.00 61 1014.0
20260507075103 61 249 4.0 13.0 0.00 0.01 0.00 61 1013.9
20260507074603 61 243 5.0 18.0 0.00 0.01 0.00 61 1013.8
20260507074103 61 220 4.0 18.0 0.00 0.01 0.00 62 1013.7
20260507073559 61 93 4.0 11.0 0.00 0.01 0.00 63 1013.5
20260507073059 60 225 4.0 10.0 0.00 0.01 0.00 64 1013.4
20260507072558 60 240 3.0 10.0 0.00 0.01 0.00 64 1013.4
20260507072058 60 238 2.0 12.0 0.00 0.01 0.00 66 1013.4
20260507071558 60 248 2.0 12.0 0.00 0.01 0.00 65 1013.4
20260507071059 59 222 3.0 11.0 0.00 0.01 0.00 66 1013.5
20260507070559 59 257 3.0 10.0 0.00 0.01 0.00 66 1013.4
20260507070059 59 232 4.0 12.0 0.00 0.01 0.00 66 1013.3
20260507065559 59 233 5.0 14.0 0.00 0.01 0.00 66 1013.2
20260507065055 59 173 5.0 14.0 0.00 0.01 0.00 66 1013.1
20260507064555 59 191 5.0 14.0 0.00 0.01 0.00 66 1013.2
20260507064055 59 182 5.0 14.0 0.00 0.01 0.00 66 1013.2
20260507063555 59 160 5.0 12.0 0.00 0.01 0.00 66 1013.2
20260507063055 59 186 6.0 17.0 0.00 0.01 0.00 66 1013.1
20260507062554 59 221 6.0 17.0 0.00 0.01 0.00 66 1012.9
20260507062055 59 268 7.0 15.0 0.00 0.01 0.00 66 1012.9
20260507061555 59 226 7.0 15.0 0.00 0.01 0.00 66 1012.9
20260507061055 59 229 6.0 15.0 0.00 0.01 0.00 66 1012.8
20260507060555 58 236 6.0 15.0 0.00 0.01 0.00 67 1012.7
20260507060055 58 206 6.0 11.0 0.00 0.01 0.00 67 1012.7
20260507055555 58 198 6.0 12.0 0.00 0.01 0.00 68 1012.6
20260507055055 58 179 6.0 15.0 0.00 0.01 0.00 68 1012.6
20260507054554 58 208 7.0 15.0 0.00 0.01 0.00 68 1012.6
20260507054054 58 233 7.0 13.0 0.00 0.01 0.00 68 1012.5
20260507053554 58 155 6.0 14.0 0.00 0.01 0.00 68 1012.4
20260507053054 58 223 7.0 14.0 0.00 0.01 0.00 68 1012.3
20260507052554 58 230 6.0 14.0 0.00 0.01 0.00 68 1012.3
20260507052054 58 151 6.0 14.0 0.00 0.01 0.00 68 1012.3
20260507051555 58 231 6.0 14.0 0.00 0.01 0.00 68 1012.3
20260507051055 58 213 6.0 14.0 0.00 0.01 0.00 68 1012.2
20260507050555 58 128 7.0 14.0 0.00 0.01 0.00 68 1012.2
20260507050054 58 93 6.0 13.0 0.00 0.01 0.00 68 1012.1
20260507045553 58 131 6.0 13.0 0.00 0.01 0.00 68 1012.1
20260507045053 58 212 7.0 13.0 0.00 0.01 0.00 68 1011.8
20260507044549 58 189 6.0 13.0 0.00 0.01 0.00 68 1011.8
20260507044049 58 203 6.0 13.0 0.00 0.01 0.00 68 1011.9
20260507043548 58 143 7.0 20.0 0.00 0.01 0.00 68 1011.8
20260507043049 58 231 7.0 20.0 0.00 0.01 0.00 68 1011.9
20260507042547 58 213 7.0 17.0 0.00 0.01 0.00 67 1011.7
20260507042048 58 140 6.0 17.0 0.00 0.01 0.00 67 1011.7
20260507041540 58 268 5.0 13.0 0.00 0.01 0.00 67 1011.6
20260507041039 58 156 6.0 12.0 0.00 0.01 0.00 68 1011.6
20260507040537 58 142 7.0 13.0 0.00 0.01 0.00 68 1011.4
20260507040037 58 198 7.0 16.0 0.00 0.01 0.00 68 1011.4
20260507035536 58 209 7.0 16.0 0.00 0.01 0.00 68 1011.4
20260507035035 58 252 7.0 16.0 0.00 0.01 0.00 68 1011.4
20260507034535 58 247 7.0 18.0 0.00 0.01 0.00 68 1011.4
20260507034035 58 203 7.0 18.0 0.00 0.01 0.00 68 1011.4
20260507033533 58 174 7.0 17.0 0.00 0.01 0.00 68 1011.4
20260507033033 58 165 7.0 17.0 0.00 0.01 0.00 68 1011.3
20260507032533 58 209 7.0 16.0 0.00 0.01 0.00 68 1011.3
20260507032031 58 37 7.0 14.0 0.00 0.01 0.00 68 1011.3
20260507031531 58 204 6.0 12.0 0.00 0.01 0.00 68 1011.3
20260507031031 58 131 6.0 12.0 0.00 0.01 0.00 68 1011.2
20260507030530 59 261 5.0 14.0 0.00 0.01 0.00 68 1011.3
20260507030025 59 194 5.0 14.0 0.00 0.01 0.00 68 1011.1
20260507025517 59 203 5.0 11.0 0.00 0.01 0.00 68 1011.1
20260507025012 59 207 6.0 12.0 0.00 0.01 0.00 68 1011.1
20260507024506 59 213 6.0 13.0 0.00 0.01 0.00 68 1011.1
20260507024000 59 154 7.0 13.0 0.00 0.01 0.00 68 1011.0
20260507023454 59 205 8.0 14.0 0.00 0.01 0.00 69 1011.0
20260507022948 59 181 7.0 14.0 0.00 0.01 0.00 69 1010.9
20260507022441 59 146 5.0 12.0 0.00 0.01 0.00 69 1011.0
20260507021937 59 224 6.0 14.0 0.00 0.01 0.00 69 1010.9
20260507021430 59 203 6.0 14.0 0.00 0.01 0.00 69 1010.9
20260507020924 59 259 6.0 14.0 0.00 0.01 0.00 70 1010.8
20260507020418 59 188 6.0 14.0 0.00 0.01 0.00 70 1010.8
20260507015912 59 174 5.0 12.0 0.00 0.01 0.00 71 1010.8
20260507015407 59 89 6.0 12.0 0.00 0.01 0.00 71 1010.9
20260507014859 59 160 5.0 12.0 0.00 0.01 0.00 71 1011.0
20260507014354 59 250 4.0 12.0 0.00 0.01 0.00 71 1011.0
20260507013848 59 187 4.0 11.0 0.00 0.01 0.00 71 1010.9
20260507013342 59 216 5.0 11.0 0.00 0.01 0.00 71 1010.8
20260507012837 60 219 5.0 10.0 0.00 0.01 0.00 71 1010.7
20260507012331 60 178 5.0 11.0 0.00 0.01 0.00 71 1010.8
20260507011829 60 200 6.0 13.0 0.00 0.01 0.00 71 1010.7
20260507011329 60 163 6.0 13.0 0.00 0.01 0.00 71 1010.6
20260507010828 60 226 5.0 12.0 0.00 0.01 0.00 71 1010.6
20260507010329 60 218 6.0 14.0 0.00 0.01 0.00 70 1010.7
20260507005829 60 219 7.0 14.0 0.00 0.01 0.00 70 1010.6
20260507005328 60 193 7.0 14.0 0.00 0.01 0.00 70 1010.4
20260507004829 60 159 7.0 14.0 0.00 0.01 0.00 70 1010.4
20260507004329 60 190 8.0 15.0 0.00 0.01 0.00 70 1010.3
20260507003829 60 186 8.0 17.0 0.00 0.01 0.00 70 1010.2
20260507003328 60 169 7.0 17.0 0.00 0.01 0.00 70 1010.1
20260507002829 60 210 7.0 14.0 0.00 0.01 0.00 70 1010.0
20260507002329 61 166 8.0 17.0 0.00 0.01 0.00 70 1010.0
20260507001829 61 165 8.0 17.0 0.00 0.01 0.00 70 1010.1
20260507001329 61 292 7.0 16.0 0.00 0.01 0.00 70 1010.1
20260507000829 61 229 5.0 15.0 0.00 0.01 0.00 70 1009.9
20260507000329 61 127 5.0 15.0 0.00 0.01 0.00 70 1010.0
20260506235828 61 216 5.0 11.0 0.00 0.01 0.00 71 1009.9
20260506235323 62 158 5.0 16.0 0.00 0.01 0.00 71 1010.0
20260506234816 62 228 5.0 16.0 0.00 0.01 0.00 71 1009.9
20260506234310 62 195 5.0 12.0 0.00 0.01 0.00 72 1009.9
20260506233805 62 180 5.0 14.0 0.00 0.01 0.00 72 1009.8
20260506233258 62 213 5.0 14.0 0.00 0.01 0.00 72 1009.8
20260506232752 62 256 6.0 13.0 0.00 0.01 0.00 72 1009.8
20260506232246 62 245 6.0 13.0 0.00 0.01 0.00 72 1009.8
20260506231740 62 297 5.0 11.0 0.00 0.01 0.00 72 1009.8
20260506231236 62 211 6.0 18.0 0.00 0.01 0.00 72 1009.7
20260506230736 62 173 7.0 18.0 0.00 0.01 0.00 72 1009.4
20260506230236 62 210 7.0 15.0 0.00 0.01 0.00 71 1009.3
20260506225737 62 176 7.0 15.0 0.00 0.01 0.00 70 1009.2
20260506225236 63 219 8.0 17.0 0.00 0.01 0.00 70 1009.1
20260506224736 63 167 8.0 17.0 0.00 0.01 0.00 69 1009.2
20260506224237 63 234 6.0 14.0 0.00 0.01 0.00 68 1009.1
20260506223736 63 209 5.0 14.0 0.00 0.01 0.00 67 1009.1
20260506223237 63 243 5.0 11.0 0.00 0.01 0.00 66 1008.9
20260506222735 64 214 4.0 9.0 0.00 0.01 0.00 66 1008.8
20260506222235 64 242 3.0 10.0 0.00 0.01 0.00 65 1008.6
20260506221734 64 216 3.0 10.0 0.00 0.01 0.00 65 1008.5
20260506221235 64 220 3.0 7.0 0.00 0.01 0.00 65 1008.5
20260506220735 64 257 3.0 8.0 0.00 0.01 0.00 65 1007.9
20260506220718 64 123 2.0 8.0 0.00 0.01 0.00 65 1008.0
20260506220222 64 205 0.0 2.0 0.00 0.01 0.01 65 1007.8
20260506215232 65 199 0.0 3.0 0.00 0.01 0.01 65 1007.5
20260506214729 65 219 0.0 3.0 0.00 0.01 0.01 64 1007.5
20260506214224 65 236 0.0 2.0 0.00 0.01 0.01 64 1007.4
20260506213717 65 236 1.0 5.0 0.00 0.01 0.01 64 1007.4
20260506213210 65 233 1.0 5.0 0.00 0.01 0.01 64 1007.3
20260506212705 66 143 2.0 9.0 0.00 0.01 0.01 63 1007.3
20260506212159 66 93 5.0 14.0 0.00 0.01 0.01 62 1007.1
20260506212135 66 86 7.0 16.0 0.00 0.01 0.01 62 1006.9
20260506211146 66 46 10.0 16.0 0.00 0.01 0.01 62 1006.9
20260506210640 67 52 9.0 15.0 0.00 0.01 0.01 62 1006.8
20260506210135 67 81 9.0 18.0 0.00 0.01 0.01 62 1006.8
20260506205628 67 92 8.0 18.0 0.00 0.01 0.01 61 1006.7
20260506205123 67 83 6.0 14.0 0.00 0.01 0.01 61 1006.7
20260506204616 67 79 6.0 13.0 0.00 0.01 0.01 61 1006.8
20260506204112 67 103 6.0 11.0 0.00 0.01 0.01 61 1006.8
20260506203605 67 93 6.0 13.0 0.00 0.01 0.01 61 1006.7
20260506203101 67 100 7.0 14.0 0.00 0.01 0.01 60 1006.7
20260506202553 67 85 8.0 16.0 0.00 0.01 0.01 60 1006.5
20260506202047 67 93 9.0 23.0 0.00 0.01 0.01 60 1006.5
20260506201541 68 77 7.0 23.0 0.00 0.01 0.01 60 1006.4
20260506201035 68 61 6.0 14.0 0.00 0.01 0.01 60 1006.5
20260506200529 68 87 9.0 21.0 0.00 0.01 0.01 59 1006.5
20260506200023 68 63 10.0 21.0 0.00 0.01 0.01 59 1006.3
20260506195517 68 73 8.0 17.0 0.00 0.01 0.01 59 1006.1
20260506195011 68 98 8.0 20.0 0.00 0.01 0.01 59 1006.1
20260506194505 68 82 10.0 23.0 0.00 0.01 0.01 59 1006.0
20260506193959 68 63 9.0 23.0 0.00 0.01 0.01 58 1005.9
20260506193456 68 100 9.0 20.0 0.00 0.01 0.01 58 1006.0
20260506192946 69 101 9.0 23.0 0.00 0.01 0.01 58 1005.8
20260506192441 69 73 9.0 23.0 0.00 0.01 0.01 58 1005.7
20260506191935 69 91 8.0 18.0 0.00 0.01 0.01 58 1005.7
20260506191428 69 153 8.0 18.0 0.00 0.01 0.01 58 1005.7
20260506190922 69 72 8.0 14.0 0.00 0.01 0.01 57 1005.6
20260506190417 69 85 8.0 20.0 0.00 0.01 0.01 57 1005.6
20260506185911 69 89 9.0 20.0 0.00 0.01 0.01 57 1005.6
20260506185405 69 86 11.0 20.0 0.00 0.01 0.01 56 1005.5
20260506184858 70 84 12.0 20.0 0.00 0.01 0.01 56 1005.4
20260506184353 70 80 10.0 18.0 0.00 0.01 0.01 56 1005.4
20260506183849 70 84 9.0 21.0 0.00 0.01 0.01 56 1005.4
20260506183341 70 72 10.0 21.0 0.00 0.01 0.01 55 1005.2
20260506182835 70 338 10.0 22.0 0.00 0.01 0.01 55 1005.3
20260506182329 70 150 8.0 17.0 0.00 0.01 0.01 55 1005.2
20260506181823 71 87 9.0 19.0 0.00 0.01 0.01 54 1005.3
20260506181316 71 91 11.0 19.0 0.00 0.01 0.01 54 1005.2
20260506180811 71 34 11.0 20.0 0.00 0.01 0.01 54 1005.2
20260506180305 71 71 11.0 20.0 0.00 0.01 0.01 53 1005.1
20260506175758 71 89 11.0 22.0 0.00 0.01 0.01 53 1005.1
20260506175252 72 112 12.0 23.0 0.00 0.01 0.01 53 1005.1
20260506174747 72 76 11.0 23.0 0.00 0.01 0.01 53 1005.0
20260506174244 72 84 9.0 18.0 0.00 0.01 0.01 53 1005.0
20260506173735 72 100 10.0 21.0 0.00 0.01 0.01 53 1005.0
20260506173229 73 77 10.0 21.0 0.00 0.01 0.01 52 1005.0
20260506172722 73 68 10.0 17.0 0.00 0.01 0.01 52 1005.0
20260506172217 73 75 10.0 24.0 0.00 0.01 0.01 52 1005.1
20260506171710 73 106 14.0 27.0 0.00 0.01 0.01 52 1005.1
20260506171205 73 81 16.0 28.0 0.00 0.01 0.01 51 1004.9
20260506170659 73 68 14.0 28.0 0.00 0.01 0.01 51 1005.0
20260506170153 74 61 11.0 24.0 0.01 0.01 0.01 50 1005.0
20260506165647 74 63 14.0 22.0 0.01 0.01 0.01 50 1005.2
20260506165141 74 68 15.0 27.0 0.01 0.01 0.01 50 1005.0
20260506164635 74 79 13.0 27.0 0.01 0.02 0.01 50 1005.0
20260506164129 74 68 13.0 28.0 0.01 0.02 0.01 50 1005.1
20260506163622 74 83 14.0 28.0 0.01 0.02 0.01 50 1005.1
20260506163117 74 113 12.0 25.0 0.01 0.02 0.01 50 1005.3
20260506162610 74 90 15.0 23.0 0.01 0.02 0.01 50 1005.4
20260506162105 74 87 14.0 31.0 0.01 0.02 0.01 50 1005.4